EW2067 Weather Reports


time (UTC)temp
F
wind
direction
speed
knots
gust
knots
rain 1hr
in
rain 24hr
in
rain mn
in
humidity
%
barometer
mb
20260502161907 55 359 0.0 0.0 0.00 0.00 0.00 47 1020.3
20260502161401 55 354 0.0 0.0 0.00 0.00 0.00 48 1020.2
20260502160855 54 337 0.0 0.0 0.00 0.00 0.00 50 1020.3
20260502160349 54 345 0.0 0.0 0.00 0.00 0.00 50 1020.3
20260502152301 50 4 0.0 0.0 0.00 0.00 0.00 50 1020.6
20260502151755 50 6 0.0 0.0 0.00 0.00 0.00 51 1020.5
20260502151249 50 328 0.0 0.0 0.00 0.00 0.00 51 1020.6
20260502150743 49 315 0.0 0.0 0.00 0.00 0.00 51 1020.5
20260502150237 49 315 0.0 0.0 0.00 0.00 0.00 52 1020.6
20260502140125 44 314 0.0 0.0 0.00 0.00 0.00 51 1021.2
20260502130519 39 314 0.0 0.0 0.00 0.00 0.00 50 1021.7
20260502123443 38 315 0.0 0.0 0.00 0.00 0.00 55 1021.6
20260502122937 39 315 0.0 0.0 0.00 0.00 0.00 56 1021.6
20260502122431 39 315 0.0 0.0 0.00 0.00 0.00 56 1021.5
20260502121925 39 315 0.0 0.0 0.00 0.00 0.00 56 1021.5
20260502121419 40 315 0.0 0.0 0.00 0.00 0.00 56 1021.5
20260502120913 40 315 0.0 0.0 0.00 0.00 0.00 55 1021.4
20260502120407 41 315 0.0 0.0 0.00 0.00 0.00 55 1021.3
20260502115901 41 315 0.0 0.0 0.00 0.00 0.00 55 1021.3
20260502115355 41 315 0.0 0.0 0.00 0.00 0.00 55 1021.3
20260502114849 40 315 0.0 0.0 0.00 0.00 0.00 56 1021.3
20260502114343 41 315 0.0 0.0 0.00 0.00 0.00 56 1021.3
20260502113837 41 200 0.0 0.0 0.00 0.00 0.00 56 1021.3
20260502113331 41 134 0.0 0.0 0.00 0.00 0.00 56 1021.3
20260502112825 41 134 0.0 0.0 0.00 0.00 0.00 56 1021.3
20260502112319 41 134 0.0 0.0 0.00 0.00 0.00 55 1021.2
20260502111813 42 134 0.0 0.0 0.00 0.00 0.00 55 1021.2
20260502111307 42 146 0.0 0.0 0.00 0.00 0.00 54 1021.2
20260502110801 42 106 0.0 0.0 0.00 0.00 0.00 54 1021.2
20260502110255 41 105 0.0 0.0 0.00 0.00 0.00 55 1021.2
20260502105749 41 104 0.0 0.0 0.00 0.00 0.00 56 1021.3
20260502105243 41 103 0.0 0.0 0.00 0.00 0.00 56 1021.3
20260502104737 41 103 0.0 0.0 0.00 0.00 0.00 56 1021.3
20260502104231 41 103 0.0 0.0 0.00 0.00 0.00 56 1021.2
20260502103725 41 103 0.0 0.0 0.00 0.00 0.00 56 1021.2
20260502103219 42 103 0.0 0.0 0.00 0.00 0.00 55 1021.2
20260502102713 43 103 0.0 0.0 0.00 0.00 0.00 54 1021.1
20260502102207 43 103 0.0 0.0 0.00 0.00 0.00 53 1021.1
20260502101701 43 102 0.0 0.0 0.00 0.00 0.00 53 1021.1
20260502101155 44 115 0.0 0.0 0.00 0.00 0.00 52 1021.0
20260502100649 44 122 0.0 0.0 0.00 0.00 0.00 52 1021.1
20260502100143 45 123 0.0 0.0 0.00 0.00 0.00 50 1021.1
20260502091043 43 152 0.0 0.0 0.00 0.00 0.00 54 1021.1
20260502090537 43 152 0.0 0.0 0.00 0.00 0.00 54 1021.0
20260502071325 48 141 0.0 0.0 0.00 0.00 0.00 48 1020.8
20260502070819 48 119 0.0 0.0 0.00 0.00 0.00 47 1020.8
20260502070251 48 115 0.0 0.0 0.00 0.00 0.00 48 1020.8
20260502065745 48 140 0.0 0.0 0.00 0.00 0.00 49 1020.7
20260502065239 48 147 0.0 0.0 0.00 0.00 0.00 50 1020.7
20260502064733 47 161 0.0 0.0 0.00 0.00 0.00 51 1020.7
20260502064227 47 167 0.0 0.0 0.00 0.00 0.00 52 1020.6
20260502063721 47 170 0.0 0.0 0.00 0.00 0.00 52 1020.5
20260502063215 49 218 0.0 0.0 0.00 0.00 0.00 49 1020.5
20260502062709 50 131 0.0 0.0 0.00 0.00 0.00 45 1020.4
20260502062203 50 133 0.0 0.0 0.00 0.00 0.00 46 1020.4
20260502061657 49 144 0.0 0.0 0.00 0.00 0.00 48 1020.4
20260502061151 49 149 0.0 0.0 0.00 0.00 0.00 48 1020.3
20260502060645 49 160 0.0 0.0 0.00 0.00 0.00 50 1020.3
20260502060139 49 155 0.0 0.0 0.00 0.00 0.00 50 1020.3
20260502055633 49 162 0.0 0.0 0.00 0.00 0.00 50 1020.3
20260502055127 48 139 0.0 0.0 0.00 0.00 0.00 52 1020.2
20260502054621 47 143 0.0 0.0 0.00 0.00 0.00 54 1020.2
20260502054115 46 154 0.0 0.0 0.00 0.00 0.00 55 1020.2
20260502053609 47 179 0.0 0.0 0.00 0.00 0.00 55 1020.2
20260502053103 47 199 0.0 0.0 0.00 0.00 0.00 55 1020.1
20260502052557 49 190 0.0 0.0 0.00 0.00 0.00 51 1020.1
20260502052051 50 138 0.0 0.0 0.00 0.00 0.00 49 1020.0
20260502051545 50 133 0.0 0.0 0.00 0.00 0.00 49 1019.9
20260502051039 50 135 0.0 0.0 0.00 0.00 0.00 49 1019.9
20260502050533 50 133 0.0 0.0 0.00 0.00 0.00 50 1019.9
20260502050027 50 145 0.0 0.0 0.00 0.00 0.00 50 1020.0
20260502045521 51 130 0.0 0.0 0.00 0.00 0.00 50 1020.0
20260502045015 50 133 0.0 0.0 0.00 0.00 0.00 51 1020.0
20260502044509 50 131 0.0 0.0 0.00 0.00 0.00 52 1020.0
20260502044003 50 143 0.0 0.0 0.00 0.00 0.00 53 1020.0
20260502043457 50 143 0.0 0.0 0.00 0.00 0.00 53 1020.0
20260502042951 50 142 0.0 0.0 0.00 0.00 0.00 53 1020.0
20260502042445 50 143 0.0 0.0 0.00 0.00 0.00 53 1020.0
20260502041939 49 135 0.0 0.0 0.00 0.00 0.00 53 1020.0
20260502041433 50 132 0.0 0.0 0.00 0.00 0.00 53 1020.0
20260502040927 49 132 0.0 0.0 0.00 0.00 0.00 53 1019.9
20260502040421 50 131 0.0 0.0 0.00 0.00 0.00 53 1019.9
20260502035915 50 130 0.0 0.0 0.00 0.00 0.00 52 1019.8
20260502035409 51 125 0.0 0.0 0.00 0.00 0.00 52 1019.8
20260502034903 51 124 0.0 0.0 0.00 0.00 0.00 51 1019.7
20260502034357 52 124 0.0 0.0 0.00 0.00 0.00 49 1019.6
20260502033851 54 305 0.0 0.0 0.00 0.00 0.00 46 1019.5
20260502033345 54 306 0.0 0.0 0.00 0.00 0.00 45 1019.4
20260502032839 54 306 0.0 0.0 0.00 0.00 0.00 46 1019.4
20260502032333 54 306 0.0 0.0 0.00 0.00 0.00 46 1019.3
20260502031827 54 306 0.0 0.0 0.00 0.00 0.00 47 1019.2
20260502031321 54 306 0.0 0.0 0.00 0.00 0.00 46 1019.2
20260502030815 54 306 0.0 0.0 0.00 0.00 0.00 45 1019.1
20260502030309 55 307 0.0 0.0 0.00 0.00 0.00 45 1019.0
20260502025803 56 307 0.0 0.0 0.00 0.00 0.00 44 1018.9
20260502025257 57 307 0.0 0.0 0.00 0.00 0.00 43 1018.7
20260502024751 57 307 0.0 0.0 0.00 0.00 0.00 40 1018.6
20260502024245 58 307 0.0 0.0 0.00 0.00 0.00 38 1018.6
20260502023739 58 307 0.0 0.0 0.00 0.00 0.00 37 1018.6
20260502023233 59 307 0.0 0.0 0.00 0.00 0.00 38 1018.5
20260502022727 59 307 0.0 0.0 0.00 0.00 0.00 40 1018.4
20260502022221 60 307 0.0 0.0 0.00 0.00 0.00 38 1018.4
20260502021715 60 307 0.0 0.0 0.00 0.00 0.00 36 1018.4
20260502021209 61 307 0.0 0.0 0.00 0.00 0.00 34 1018.3
20260502020703 61 308 0.0 0.0 0.00 0.00 0.00 34 1018.2
20260502020157 62 308 0.0 0.0 0.00 0.00 0.00 35 1018.2
20260502015651 63 308 0.0 0.0 0.00 0.00 0.00 34 1018.1
20260502015145 64 308 0.0 0.0 0.00 0.00 0.00 32 1018.1
20260502014639 65 315 0.0 0.0 0.00 0.00 0.00 31 1018.0
20260502014133 65 315 0.0 0.0 0.00 0.00 0.00 31 1018.0
20260502013627 66 318 0.0 0.0 0.00 0.00 0.00 26 1017.9
20260502013121 66 319 0.0 0.0 0.00 0.00 0.00 27 1017.9
20260502012615 66 318 0.0 0.0 0.00 0.00 0.00 26 1017.8
20260502012109 66 319 0.0 0.0 0.00 0.00 0.00 23 1017.8
20260502011603 66 319 0.0 0.0 0.00 0.00 0.00 22 1017.8
20260502011057 66 318 0.0 0.0 0.00 0.00 0.00 23 1017.7
20260502010551 66 320 0.0 0.0 0.00 0.00 0.00 23 1017.7
20260502010045 67 324 0.0 0.0 0.00 0.00 0.00 27 1017.8
20260502005539 67 322 0.0 0.0 0.00 0.00 0.00 26 1017.8
20260502005033 67 320 0.0 0.0 0.00 0.00 0.00 25 1017.7
20260502004527 67 317 0.0 0.0 0.00 0.00 0.00 25 1017.7
20260502004021 67 323 0.0 0.0 0.00 0.00 0.00 25 1017.7
20260502003515 67 316 0.0 0.0 0.00 0.00 0.00 25 1017.7
20260502003009 67 322 0.0 0.0 0.00 0.00 0.00 25 1017.7
20260502002503 67 340 0.0 0.0 0.00 0.00 0.00 25 1017.7
20260502001957 67 331 0.0 0.0 0.00 0.00 0.00 23 1017.7
20260502001451 68 285 0.0 0.0 0.00 0.00 0.00 24 1017.7
20260502000945 67 314 0.0 0.0 0.00 0.00 0.00 25 1017.7
20260502000439 67 321 0.0 0.0 0.00 0.00 0.00 24 1017.8
20260501235933 67 287 0.0 0.0 0.00 0.00 0.00 25 1017.8
20260501235427 67 337 0.0 0.0 0.00 0.00 0.00 25 1017.8
20260501234921 67 325 0.0 0.0 0.00 0.00 0.00 24 1017.9
20260501234415 68 276 0.0 0.0 0.00 0.00 0.00 24 1017.9
20260501233909 67 308 0.0 0.0 0.00 0.00 0.00 24 1017.9
20260501233403 67 313 0.0 0.0 0.00 0.00 0.00 25 1017.9
20260501232857 67 303 0.0 0.0 0.00 0.00 0.00 24 1017.9
20260501232351 67 301 0.0 0.0 0.00 0.00 0.00 24 1017.9
20260501231845 67 303 0.0 0.0 0.00 0.00 0.00 23 1017.9
20260501231339 67 309 0.0 0.0 0.00 0.00 0.00 23 1017.9
20260501230833 67 293 0.0 0.0 0.00 0.00 0.00 23 1018.0
20260501230327 67 287 0.0 0.0 0.00 0.00 0.00 23 1018.0
20260501225821 67 314 0.0 0.0 0.00 0.00 0.00 24 1018.0
20260501225315 67 316 0.0 0.0 0.00 0.00 0.00 23 1018.0
20260501224809 67 296 0.0 0.0 0.00 0.00 0.00 23 1018.0
20260501224303 67 309 0.0 0.0 0.00 0.00 0.00 25 1018.1
20260501223757 67 297 0.0 0.0 0.00 0.00 0.00 24 1018.2
20260501223251 67 315 0.0 0.0 0.00 0.00 0.00 24 1018.3
20260501222744 66 298 0.0 0.0 0.00 0.00 0.00 24 1018.3
20260501222239 66 290 0.0 0.0 0.00 0.00 0.00 24 1018.4
20260501221733 66 312 0.0 0.0 0.00 0.00 0.00 23 1018.5
20260501221227 66 306 0.0 0.0 0.00 0.00 0.00 24 1018.5
20260501220721 66 227 0.0 0.0 0.00 0.00 0.00 25 1018.6
20260501220215 67 282 0.0 0.0 0.00 0.00 0.00 23 1018.6
20260501215709 66 326 0.0 0.0 0.00 0.00 0.00 26 1018.8
20260501215203 66 310 0.0 0.0 0.00 0.00 0.00 25 1018.8
20260501214656 66 319 0.0 0.0 0.00 0.00 0.00 25 1018.8
20260501214151 66 293 0.0 0.0 0.00 0.00 0.00 28 1018.8
20260501213644 66 302 0.0 0.0 0.00 0.00 0.00 25 1019.0
20260501213139 66 306 0.0 0.0 0.00 0.00 0.00 27 1018.9
20260501212633 66 307 0.0 0.0 0.00 0.00 0.00 26 1019.0
20260501212127 66 273 0.0 0.0 0.00 0.00 0.00 25 1019.0
20260501211620 66 354 0.0 0.0 0.00 0.00 0.00 26 1019.0
20260501211114 66 279 0.0 0.0 0.00 0.00 0.00 25 1019.1
20260501210609 66 271 0.0 0.0 0.00 0.00 0.00 26 1019.1
20260501205556 65 271 0.0 0.0 0.00 0.00 0.00 26 1019.1
20260501205051 65 328 0.0 0.0 0.00 0.00 0.00 27 1019.2
20260501204544 64 288 0.0 0.0 0.00 0.00 0.00 26 1019.2
20260501204038 64 350 0.0 0.0 0.00 0.00 0.00 27 1019.2
20260501203532 64 344 0.0 0.0 0.00 0.00 0.00 26 1019.2
20260501203027 64 320 0.0 0.0 0.00 0.00 0.00 25 1019.2
20260501202520 64 315 0.0 0.0 0.00 0.00 0.00 27 1019.2
20260501202015 64 338 0.0 0.0 0.00 0.00 0.00 27 1019.2
20260501201509 64 314 0.0 0.0 0.00 0.00 0.00 28 1019.2
20260501201002 63 302 0.0 0.0 0.00 0.00 0.00 27 1019.2
20260501200456 64 326 0.0 0.0 0.00 0.00 0.00 26 1019.2
20260501195951 63 335 0.0 0.0 0.00 0.00 0.00 28 1019.2
20260501195444 63 344 0.0 0.0 0.00 0.00 0.00 27 1019.3
20260501194938 63 344 0.0 0.0 0.00 0.00 0.00 27 1019.4
20260501194432 63 346 0.0 0.0 0.00 0.00 0.00 28 1019.4
20260501193927 62 342 0.0 0.0 0.00 0.00 0.00 30 1019.4
20260501193420 62 347 0.0 0.0 0.00 0.00 0.00 27 1019.4
20260501192914 63 4 0.0 0.0 0.00 0.00 0.00 28 1019.4
20260501192408 63 357 0.0 0.0 0.00 0.00 0.00 30 1019.4
20260501191902 62 356 0.0 0.0 0.00 0.00 0.00 32 1019.5
20260501191356 62 338 0.0 0.0 0.00 0.00 0.00 31 1019.5
20260501190850 62 333 0.0 0.0 0.00 0.00 0.00 29 1019.5
20260501190344 62 348 0.0 0.0 0.00 0.00 0.00 29 1019.6
20260501185838 62 307 0.0 0.0 0.00 0.00 0.00 32 1019.7
20260501185332 62 353 0.0 0.0 0.00 0.00 0.00 29 1019.6
20260501184827 62 318 0.0 0.0 0.00 0.00 0.00 29 1019.7
20260501184320 62 275 0.0 0.0 0.00 0.00 0.00 30 1019.8
20260501183814 61 315 0.0 0.0 0.00 0.00 0.00 30 1019.8
20260501183308 61 334 0.0 0.0 0.00 0.00 0.00 32 1019.9
20260501182802 61 313 0.0 0.0 0.00 0.00 0.00 29 1019.9
20260501182256 61 26 0.0 0.0 0.00 0.00 0.00 29 1019.9
20260501181751 61 1 0.0 0.0 0.00 0.00 0.00 28 1020.0
20260501181244 60 348 0.0 0.0 0.00 0.00 0.00 30 1020.0
20260501180738 60 348 0.0 0.0 0.00 0.00 0.00 29 1020.0
20260501180232 60 262 0.0 0.0 0.00 0.00 0.00 33 1020.1
20260501175726 60 320 0.0 0.0 0.00 0.00 0.00 33 1020.1
20260501175220 60 301 0.0 0.0 0.00 0.00 0.00 33 1020.1
20260501174714 59 154 0.0 0.0 0.00 0.00 0.00 32 1020.1
20260501174208 59 169 0.0 0.0 0.00 0.00 0.00 35 1020.2
20260501173702 59 191 0.0 0.0 0.00 0.00 0.00 34 1020.2
20260501173156 58 255 0.0 0.0 0.00 0.00 0.00 35 1020.3
20260501172651 58 254 0.0 0.0 0.00 0.00 0.00 34 1020.3
20260501172144 58 254 0.0 0.0 0.00 0.00 0.00 35 1020.4
20260501171638 57 254 0.0 0.0 0.00 0.00 0.00 35 1020.4
20260501171132 56 254 0.0 0.0 0.00 0.00 0.00 36 1020.5
20260501170626 56 254 0.0 0.0 0.00 0.00 0.00 36 1020.6
20260501170120 56 306 0.0 0.0 0.00 0.00 0.00 38 1020.7
20260501165614 56 316 0.0 0.0 0.00 0.00 0.00 39 1020.7
20260501165108 56 325 0.0 0.0 0.00 0.00 0.00 41 1020.7
20260501164602 56 306 0.0 0.0 0.00 0.00 0.00 42 1020.7
20260501164057 55 325 0.0 0.0 0.00 0.00 0.00 45 1020.8
20260501163550 55 314 0.0 0.0 0.00 0.00 0.00 46 1020.8
20260501163044 55 325 0.0 0.0 0.00 0.00 0.00 46 1020.9
20260501162538 54 315 0.0 0.0 0.00 0.00 0.00 45 1020.9